{"data":{"norad_id":46351,"intl_designator":"2020-062AC","name":"STARLINK-1646","alt_names":[],"object_type":"PAYLOAD","status":"ACTIVE","operator":null,"country":"US","launch_date":"2020-09-03","launch_site_code":"AFETR","launch_vehicle":null,"mission":null,"orbit_class":"UNKNOWN","rcs_meters":null,"size_class":null,"mass_kg":null,"dimensions":null,"purposes":["comms"],"wikipedia_slug":null,"has_3d_model":false,"image_url":null,"decayed_at":null,"tle_current":{"epoch":"2026-08-10T06:49:54.756192Z","epoch_age_seconds":3582973,"freshness":"OLD","line1":"1 46351U 20062AC  26222.28466153  .05391627  12280-4  72699-3 0  9994","line2":"2 46351  53.0145 287.4277 0008553 326.0529  33.9966 16.34475654329144","mean_motion":16.34475654,"eccentricity":0.0008553,"inclination_deg":53.0145,"raan_deg":287.4277,"arg_perigee_deg":326.0529,"mean_anomaly_deg":33.9966,"bstar":0.00072699,"rev_number":32914,"period_min":88.101648775002,"perigee_km":174.9297685794,"apogee_km":186.14904043695,"semimajor_km":6558.6764045082,"source":"CELESTRAK","updated_at":"2026-08-10T09:00:59.177358Z"}}}